Weather History for SBTE - May, 2014

Change the Weather History Date:

Friday, May 2, 2014

  Actual Average Record
Temperature  
Mean Temperature 84 °F -  
Max Temperature 92 °F 89 °F 95 °F (1998)
Min Temperature 75 °F 73 °F 73 °F (2003)
Cooling Degree Days 18    
Growing Degree Days 34 (Base 50)    
Moisture  
Dew Point 76 °F    
Average Humidity 80    
Maximum Humidity 100    
Minimum Humidity 41    
Precipitation  
Precipitation 0.16 in - - ()
Sea Level Pressure  
Sea Level Pressure 29.85 in    
Wind  
Wind Speed 2 mph ()    
Max Wind Speed 7 mph    
Max Gust Speed -    
Visibility 7.6 miles    
Events      
Averages and records for this station are not official NWS values.
T = Trace of Precipitation, MM = Missing Value Source: Averaged Metar Reports

Daily Weather History Graph

Daily Weather History Graph

Search for Another Location

Airport or City:

Trip Planner

Search our weather history database for the weather conditions in past years. The results will help you decide how hot, cold, wet, or windy it might be!

Date:

Astronomy

May. 02, 2014 Rise Set
Actual Time 5:50 AM BRT 5:46 PM BRT
Civil Twilight 5:28 AM BRT 6:07 PM BRT
Nautical Twilight 5:03 AM BRT 6:32 PM BRT
Astronomical Twilight 4:39 AM BRT 6:57 PM BRT
Moon 8:37 AM BRT (5/2) 8:47 PM BRT (5/2)
Length of Visible Light 12h 38m
Length of Day
11h 55m
Waxing Crescent, 12% of the Moon is Illuminated
May 2
Waxing Crescent
May 7
First Quarter
May 14
Full
May 21
Last Quarter
May 28
New

Hourly Weather History & Observations

Time (BRT) Temp. Heat Index Dew Point Humidity Pressure Visibility Wind Dir Wind Speed Gust Speed Precip Events Conditions
12:00 AM 77.0 °F - 77.0 °F 100% 29.86 in 6.2 mi Calm Calm - N/A   Mostly Cloudy
1:00 AM 78.8 °F - 77.0 °F 94% 29.83 in 6.2 mi Calm Calm - N/A   Scattered Clouds
2:00 AM 77.0 °F - 77.0 °F 100% 29.83 in 6.2 mi Calm Calm - N/A   Partly Cloudy
3:00 AM 77 °F - 76 °F 96% 29.81 in 12 mi Calm Calm - -   Partly Cloudy
3:00 AM 77.0 °F - 77.0 °F 100% 29.80 in - Calm Calm - N/A   Clear
4:00 AM 77.0 °F - 75.2 °F 94% 29.80 in - Calm Calm - N/A   Clear
5:00 AM 77.0 °F - 75.2 °F 94% 29.80 in - Calm Calm - N/A   Clear
6:00 AM 75.2 °F - 75.2 °F 100% 29.83 in - Calm Calm - N/A   Clear
7:00 AM 80.6 °F 88.1 °F 78.8 °F 94% 29.89 in - Calm Calm - N/A   Clear
8:00 AM 82.4 °F 90.9 °F 77.0 °F 84% 29.89 in - SSE 4.6 mph - N/A   Clear
9:00 AM 84 °F - 77 °F 74% 29.91 in 12 mi South 6.9 mph - -   Partly Cloudy
9:00 AM 84.2 °F 94.1 °F 77.0 °F 79% 29.92 in 6.2 mi South 6.9 mph - N/A   Scattered Clouds
10:00 AM 86.0 °F 96.9 °F 77.0 °F 74% 29.89 in 6.2 mi SE 5.8 mph - N/A   Mostly Cloudy
11:00 AM 89.6 °F 104.7 °F 78.8 °F 70% 29.92 in 6.2 mi ESE 2.3 mph - N/A   Mostly Cloudy
12:00 PM 89.6 °F 102.2 °F 77.0 °F 66% 29.89 in 6.2 mi SE 6.9 mph - N/A   Mostly Cloudy
1:00 PM 91.4 °F 102.5 °F 75.2 °F 59% 29.86 in 6.2 mi SE 5.8 mph - N/A   Mostly Cloudy
2:00 PM 91.4 °F 105.1 °F 77.0 °F 63% 29.83 in 6.2 mi South 6.9 mph - N/A   Scattered Clouds
3:00 PM 92 °F - 76 °F 51% 29.80 in 12 mi SSE 6.9 mph - -   Scattered Clouds
3:00 PM 93.2 °F 105.0 °F 75.2 °F 56% 29.80 in 6.2 mi SSE 6.9 mph - N/A   Scattered Clouds
4:00 PM 93.2 °F 105.0 °F 75.2 °F 56% 29.80 in 6.2 mi East 4.6 mph - N/A   Partly Cloudy
5:00 PM 93.2 °F 96.2 °F 66.2 °F 41% 29.80 in 6.2 mi ENE 3.5 mph - N/A   Scattered Clouds
6:00 PM 87.8 °F 99.7 °F 77.0 °F 70% 29.83 in - North 3.5 mph - N/A   Clear
7:00 PM 82.4 °F 89.5 °F 75.2 °F 79% 29.83 in - Calm Calm - N/A   Clear
8:00 PM 80.6 °F 86.2 °F 75.2 °F 84% 29.86 in - North 2.3 mph - N/A   Clear
9:00 PM 80 °F - 77 °F 86% 29.88 in 12 mi North 4.6 mph - -  
9:00 PM 80.6 °F 87.1 °F 77.0 °F 89% 29.89 in - North 4.6 mph - N/A   Clear
10:00 PM 78.8 °F - 77.0 °F 94% 29.89 in - NW 2.3 mph - N/A   Clear
11:00 PM 78.8 °F - 77.0 °F 94% 29.92 in 6.2 mi North 2.3 mph - N/A   Mostly Cloudy